TimeMDT,TemperatureF,Dew PointF,Humidity,Sea Level PressureIn,VisibilityMPH,Wind Direction,Wind SpeedMPH,Gust SpeedMPH,PrecipitationIn,Events,Conditions,WindDirDegrees,DateUTC
12:53 AM,52.0,21.0,30,29.65,10.0,Variable,3.5,-,N/A,,Clear,0,2012-03-29 06:53:00
1:53 AM,52.0,21.0,30,29.65,10.0,WSW,10.4,16.1,N/A,,Partly Cloudy,240,2012-03-29 07:53:00
2:53 AM,51.1,21.9,32,29.66,10.0,WSW,6.9,18.4,N/A,,Clear,240,2012-03-29 08:53:00
3:53 AM,46.9,23.0,39,29.67,10.0,West,9.2,-,N/A,,Partly Cloudy,270,2012-03-29 09:53:00
4:53 AM,48.9,28.0,44,29.68,10.0,West,4.6,-,N/A,,Clear,260,2012-03-29 10:53:00
5:53 AM,46.0,28.0,50,29.69,10.0,Calm,Calm,-,N/A,,Clear,0,2012-03-29 11:53:00
6:53 AM,43.0,28.0,56,29.75,10.0,NW,3.5,-,N/A,,Scattered Clouds,320,2012-03-29 12:53:00
7:53 AM,44.1,30.9,60,29.80,10.0,NNW,6.9,-,N/A,,Clear,340,2012-03-29 13:53:00
8:53 AM,44.1,32.0,63,29.82,10.0,NW,5.8,18.4,N/A,,Mostly Cloudy,320,2012-03-29 14:53:00
9:53 AM,48.9,32.0,52,29.83,10.0,NNW,10.4,-,N/A,,Clear,340,2012-03-29 15:53:00
10:53 AM,53.1,28.0,38,29.83,10.0,Variable,4.6,-,N/A,,Clear,0,2012-03-29 16:53:00
11:53 AM,55.0,26.1,33,29.78,10.0,Variable,4.6,-,N/A,,Mostly Cloudy,0,2012-03-29 17:53:00
12:53 PM,57.0,26.1,30,29.76,10.0,WSW,8.1,-,N/A,,Scattered Clouds,240,2012-03-29 18:53:00
1:53 PM,59.0,27.0,29,29.73,10.0,SW,12.7,18.4,N/A,,Mostly Cloudy,230,2012-03-29 19:53:00
2:53 PM,57.9,24.1,27,29.73,10.0,West,11.5,18.4,N/A,,Clear,280,2012-03-29 20:53:00
3:53 PM,57.0,24.1,28,29.74,10.0,West,10.4,21.9,N/A,,Clear,260,2012-03-29 21:53:00
4:53 PM,55.0,24.1,30,29.73,10.0,WSW,10.4,17.3,N/A,,Clear,250,2012-03-29 22:53:00
5:53 PM,54.0,24.1,31,29.74,10.0,Variable,3.5,-,N/A,,Clear,0,2012-03-29 23:53:00
6:53 PM,51.1,27.0,39,29.76,10.0,WSW,3.5,-,N/A,,Clear,240,2012-03-30 00:53:00
7:53 PM,48.0,28.0,46,29.77,10.0,Calm,Calm,-,N/A,,Clear,0,2012-03-30 01:53:00
8:53 PM,45.0,27.0,49,29.78,10.0,Calm,Calm,-,N/A,,Partly Cloudy,0,2012-03-30 02:53:00
9:53 PM,46.0,27.0,47,29.75,10.0,Calm,Calm,-,N/A,,Overcast,0,2012-03-30 03:53:00
10:53 PM,45.0,28.9,53,29.73,10.0,Calm,Calm,-,N/A,,Overcast,0,2012-03-30 04:53:00
11:53 PM,48.0,24.1,39,29.68,10.0,Variable,6.9,23.0,N/A,,Overcast,0,2012-03-30 05:53:00